007  
ASUS43 KJKL 282110  
RWRJKL  
 
EAST KENTUCKY HOURLY WEATHER ROUNDUP  
NATIONAL WEATHER SERVICE JACKSON KY  
500 PM EDT FRI APR 28 2017  
 
NOTE: "FAIR" INDICATES FEW OR NO CLOUDS BELOW 12,000 FEET WITH  
NO SIGNIFICANT WEATHER AND/OR S TO VISIBILITY
.  
 
* THESE REPORTS ARE NOT UNDER NWS QUALITY CONTROL AND MAY NOT  
REPORT WEATHER SUCH AS PRECIPITATION AND FOG.
 
 
KYZ079-080-083-085-087-088-110-112-115-119-120-282200   
..EASTERN KENTUCKY
 
 
 
CITY SKY/WX TMP DP RH WIND PRES REMARKS
 
JACKSON PTSUNNY 83 54 36 CALM 29.94F  
LONDON CLOUDY 80 58 46 SW13 29.95R  
SOMERSET* MOSUNNY 79 59 50 S7G17 29.94S  
MONTICELLO* CLOUDY 80 64 58 SW15 29.95R  
WILLIAMSBURG* PTCLDY 81 59 47 SW14G23 29.95F  
MIDDLESBORO* SUNNY 82 63 52 SW9 29.96F  
HARLAN APT* MOCLDY 81 55 41 CALM 29.96F  
PIKE CO APT* PTSUNNY 83 50 31 CALM 29.95F  
BIG SANDY APT* MOCLDY 84 56 38 SE3 29.94F  
MOREHEAD APT* CLOUDY 81 50 34 SE6 29.95F  

 
 
KYZ035-036-041-042-044-050-067-078-099-282200   
..CENTRAL KENTUCKY
 
 
 
CITY SKY/WX TMP DP RH WIND PRES REMARKS
 
MT STERLING* MOSUNNY 79 59 50 W6 29.94F  
FLEMING/MASON* PTSUNNY 77 54 43 S6 29.96S  
DANVILLE* PTSUNNY 79 61 53 SW10G17 29.92S  
LEXINGTON CLOUDY 79 58 48 S10 29.91F  
FRANKFORT CLOUDY 78 58 49 SE7 29.89F  
LOUISVILLE CLOUDY 79 62 56 SE10 29.83F  
GLASGOW* CLOUDY 78 63 59 S10G17 29.88F  
BOWLING GREEN CLOUDY 79 67 66 S12 29.86F  

 
 
KYZ091>093-OHZ055-061-077-WVZ005-015-034-035-042-282200   
..SOUTHERN OHIO/WEST VIRGINIA
 
 
 
CITY SKY/WX TMP DP RH WIND PRES REMARKS
 
COVINGTON PTSUNNY 74 56 53 SE10 29.90F  
COLUMBUS CLOUDY 71 49 45 NE6 29.97F  
DAYTON CLOUDY 64 50 60 E9 29.95F  
WILMINGTON CLOUDY 70 56 61 S12 29.95F  
HUNTINGTON CLOUDY 81 53 37 SE6 29.93F  
CHARLESTON MOSUNNY 82 45 27 SW6 29.94F  
PINEVILLE* SUNNY 89 33 13 MISG 30.02F  
BECKLEY SUNNY 80 54 40 S10 30.02F  
BLUEFIELD SUNNY 79 47 32 VRB6 30.06S  
LOGAN CO APT* N/A 84 54 34 CALM 29.97F  

 
 
VAZ002-007-008-TNZ017-027-036-066-071-282200   
..SOUTHWEST VIRGINIA/EAST TENNESSEE
 
 
 
CITY SKY/WX TMP DP RH WIND PRES REMARKS
 
WISE* MOSUNNY 79 46 31 S15 30.04F  
JONESVILLE* N/A 84 57 39 CALM 29.98F  
ABINGDON* SUNNY 85 49 28 W3 30.00F  
BRISTOL MOSUNNY 83 56 39 CALM 29.97F  
MORRISTOWN* PTCLDY 81 64 57 NW7 29.96F  
SEVIERVILLE* CLEAR 84 64 51 NW6 29.94F  
KNOXVILLE SUNNY 82 65 56 W10 29.94F  
LAFOLLETTE* PTCLDY 81 64 57 SW6 29.98F  
OAK RIDGE MOSUNNY 81 64 56 VRB6 29.96F  
CROSSVILLE PTSUNNY 75 62 64 S10G22 30.00F  
NASHVILLE PTSUNNY 81 67 62 S16G23 29.87F  

 
   
..KEY TO REMARKS
 
 
VSB - VISIBILITY IN MILES  
WCI - WIND CHILL INDEX  
HX - HEAT INDEX  
 

 
 
 
CLICK HERE TO GO TO PREVIOUS BULLETINS.

The Nexlab KY Page Main Text Page